Weather History for KMZG - February, 2014

Change the Weather History Date:

Wednesday, February 12, 2014

  Actual Average Record
Temperature  
Mean Temperature 46 °F -  
Max Temperature 51 °F - - ()
Min Temperature 41 °F - - ()
Degree Days  
Heating Degree Days 19    
Moisture  
Dew Point 39 °F    
Average Humidity 75    
Maximum Humidity 93    
Minimum Humidity 58    
Precipitation  
Precipitation 0.00 in - - ()
Sea Level Pressure  
Sea Level Pressure 30.11 in    
Wind  
Wind Speed 25 mph (NNW)    
Max Wind Speed 32 mph    
Max Gust Speed 38 mph    
Visibility 8 miles    
Events      
Averages and records for this station are not official NWS values.
T = Trace of Precipitation, MM = Missing Value Source: NWS Daily Summary

Daily Weather History Graph

Daily Weather History Graph

Search for Another Location

Airport or City:

Trip Planner

Search our weather history database for the weather conditions in past years. The results will help you decide how hot, cold, wet, or windy it might be!

Date:

Astronomy

Feb. 12, 2014 Rise Set
Actual Time 7:04 AM CST 6:13 PM CST
Civil Twilight 6:40 AM CST 6:38 PM CST
Nautical Twilight 6:12 AM CST 7:05 PM CST
Astronomical Twilight 5:45 AM CST 7:32 PM CST
Moon 4:32 PM CST (2/12) 5:17 AM CST (2/12)
Length of Visible Light 11h 57m
Length of Day
11h 09m
Waxing Gibbous, 95% of the Moon is Illuminated
Feb 12
Waxing Gibbous
Feb 14
Full
Feb 22
Last Quarter
Mar 1
New
Mar 8
First Quarter

Hourly Weather History & Observations

Time (CST) Temp. Windchill Dew Point Humidity Pressure Visibility Wind Dir Wind Speed Gust Speed Precip Events Conditions
3:55 AM 41.0 °F 30.0 °F 37.4 °F 87% 30.11 in 10.0 mi NW 28.8 mph 38.0 mph N/A   Overcast
4:15 AM 41.0 °F 29.5 °F 37.4 °F 87% 30.11 in 10.0 mi NW 32.2 mph - N/A   Overcast
4:35 AM 41.0 °F 29.7 °F 37.4 °F 87% 30.10 in 9.0 mi NNW 31.1 mph - N/A   Overcast
4:55 AM 41.0 °F 29.8 °F 39.2 °F 93% 30.10 in 10.0 mi NW 29.9 mph - N/A   Overcast
5:15 AM 41.0 °F 30.2 °F 39.2 °F 93% 30.10 in 8.0 mi NW 27.6 mph 33.4 mph N/A   Overcast
5:35 AM 41.0 °F 30.2 °F 39.2 °F 93% 30.09 in 6.0 mi NNW 27.6 mph 33.4 mph N/A   Overcast
5:55 AM 41.0 °F 30.2 °F 39.2 °F 93% 30.10 in 5.0 mi NW 27.6 mph - N/A   Overcast
6:15 AM 41.0 °F 30.9 °F 39.2 °F 93% 30.11 in 6.0 mi NNW 24.2 mph 32.2 mph N/A   Overcast
6:35 AM 41.0 °F 30.5 °F 39.2 °F 93% 30.11 in 6.0 mi NNW 26.5 mph - N/A   Overcast
6:55 AM 41.0 °F 30.9 °F 39.2 °F 93% 30.12 in 6.0 mi NW 24.2 mph 31.1 mph N/A   Overcast
7:15 AM 41.0 °F 30.5 °F 39.2 °F 93% 30.13 in 6.0 mi NNW 26.5 mph 33.4 mph N/A   Overcast
7:35 AM 42.8 °F 32.3 °F 39.2 °F 87% 30.13 in 5.0 mi NNW 29.9 mph - N/A   Overcast
7:55 AM 42.8 °F 32.3 °F 39.2 °F 87% 30.14 in 5.0 mi NW 29.9 mph - N/A   Overcast
8:15 AM 42.8 °F 32.9 °F 39.2 °F 87% 30.15 in 5.0 mi NNW 26.5 mph 34.5 mph N/A   Overcast
8:35 AM 42.8 °F 33.3 °F 39.2 °F 87% 30.15 in 5.0 mi NW 24.2 mph 31.1 mph N/A   Mostly Cloudy
8:55 AM 41.0 °F 30.7 °F 39.2 °F 93% 30.15 in 5.0 mi NW 25.3 mph 32.2 mph N/A   Overcast
9:15 AM 42.8 °F 32.9 °F 39.2 °F 87% 30.15 in 5.0 mi NW 26.5 mph - N/A   Overcast
9:35 AM 42.8 °F 32.9 °F 39.2 °F 87% 30.16 in 5.0 mi NW 26.5 mph - N/A   Mostly Cloudy
9:55 AM 42.8 °F 32.9 °F 39.2 °F 87% 30.16 in 5.0 mi NW 26.5 mph - N/A   Overcast
10:15 AM 42.8 °F 33.1 °F 39.2 °F 87% 30.17 in 5.0 mi NW 25.3 mph 31.1 mph N/A   Mostly Cloudy
10:35 AM 42.8 °F 33.1 °F 37.4 °F 81% 30.17 in 6.0 mi NW 25.3 mph - N/A   Haze
10:55 AM 42.8 °F 33.3 °F 39.2 °F 87% 30.17 in 6.0 mi NW 24.2 mph 31.1 mph N/A   Haze
11:15 AM 42.8 °F 32.9 °F 39.2 °F 87% 30.17 in 7.0 mi NW 26.5 mph - N/A   Overcast
11:35 AM 44.6 °F 35.5 °F 39.2 °F 81% 30.17 in 7.0 mi NW 25.3 mph 31.1 mph N/A   Overcast
11:55 AM 44.6 °F 35.5 °F 39.2 °F 81% 30.17 in 8.0 mi NW 25.3 mph - N/A   Overcast
12:15 PM 44.6 °F 35.3 °F 39.2 °F 81% 30.16 in 8.0 mi NW 26.5 mph - N/A   Mostly Cloudy
12:35 PM 44.6 °F 35.7 °F 39.2 °F 81% 30.15 in 9.0 mi NW 24.2 mph 29.9 mph N/A   Overcast
12:55 PM 46.4 °F 37.9 °F 39.2 °F 76% 30.13 in 9.0 mi NW 25.3 mph - N/A   Mostly Cloudy
1:15 PM 46.4 °F 38.5 °F 37.4 °F 71% 30.12 in 10.0 mi NNW 21.9 mph 28.8 mph N/A   Mostly Cloudy
1:35 PM 46.4 °F 38.1 °F 39.2 °F 76% 30.10 in 10.0 mi NW 24.2 mph - N/A   Mostly Cloudy
1:55 PM 46.4 °F 38.3 °F 37.4 °F 71% 30.09 in 10.0 mi NNW 23.0 mph 29.9 mph N/A   Scattered Clouds
2:15 PM 46.4 °F 38.7 °F 37.4 °F 71% 30.09 in 10.0 mi NW 20.7 mph 29.9 mph N/A   Mostly Cloudy
2:35 PM 46.4 °F 38.5 °F 37.4 °F 71% 30.08 in 10.0 mi NNW 21.9 mph - N/A   Mostly Cloudy
2:55 PM 48.2 °F - 37.4 °F 66% 30.07 in 10.0 mi NW 20.7 mph - N/A   Mostly Cloudy
3:15 PM 48.2 °F - 37.4 °F 66% 30.07 in 10.0 mi NNW 20.7 mph 26.5 mph N/A   Scattered Clouds
3:35 PM 48.2 °F - 37.4 °F 66% 30.07 in 10.0 mi NW 21.9 mph - N/A   Partly Cloudy
3:55 PM 48.2 °F - 37.4 °F 66% 30.07 in 10.0 mi NW 19.6 mph 26.5 mph N/A   Scattered Clouds
4:15 PM 48.2 °F - 37.4 °F 66% 30.07 in 10.0 mi NW 20.7 mph - N/A   Mostly Cloudy
4:35 PM 50.0 °F - 37.4 °F 62% 30.07 in 10.0 mi NW 17.3 mph - N/A   Scattered Clouds
4:55 PM 50.0 °F - 39.2 °F 66% 30.07 in 10.0 mi NW 19.6 mph - N/A   Partly Cloudy
5:15 PM 50.0 °F - 39.2 °F 66% 30.07 in 10.0 mi NNW 11.5 mph - N/A   Scattered Clouds
5:35 PM 50.0 °F - 39.2 °F 66% 30.07 in 10.0 mi NNW 16.1 mph - N/A   Partly Cloudy
5:55 PM 50.0 °F - 39.2 °F 66% 30.07 in 10.0 mi NNW 17.3 mph - N/A   Clear
6:15 PM 50.0 °F - 39.2 °F 66% 30.07 in 10.0 mi NNW 18.4 mph - N/A   Clear
6:35 PM 50.0 °F - 37.4 °F 62% 30.08 in 10.0 mi NW 17.3 mph 24.2 mph N/A   Clear
6:55 PM 51.8 °F - 37.4 °F 58% 30.08 in 10.0 mi NW 16.1 mph 23.0 mph N/A   Partly Cloudy
7:15 PM 51.8 °F - 37.4 °F 58% 30.08 in 10.0 mi NNW 18.4 mph 24.2 mph N/A   Partly Cloudy
7:35 PM 51.8 °F - 37.4 °F 58% 30.09 in 10.0 mi NW 19.6 mph - N/A   Clear
7:55 PM 51.8 °F - 37.4 °F 58% 30.09 in 10.0 mi NNW 19.6 mph - N/A   Clear
8:15 PM 51.8 °F - 37.4 °F 58% 30.10 in 10.0 mi NNW 21.9 mph 27.6 mph N/A   Clear
8:35 PM 51.8 °F - 39.2 °F 62% 30.10 in 10.0 mi NNW 21.9 mph - N/A   Clear
8:55 PM 51.8 °F - 39.2 °F 62% 30.11 in 10.0 mi NNW 20.7 mph - N/A   Clear
9:15 PM 51.8 °F - 39.2 °F 62% 30.11 in 10.0 mi North 17.3 mph 25.3 mph N/A   Clear
9:35 PM 51.8 °F - 39.2 °F 62% 30.11 in 10.0 mi NNW 18.4 mph - N/A   Clear
9:55 PM 51.8 °F - 37.4 °F 58% 30.11 in 10.0 mi NNW 17.3 mph - N/A   Clear
10:15 PM 51.8 °F - 39.2 °F 62% 30.11 in 10.0 mi North 16.1 mph - N/A   Clear
10:35 PM 51.8 °F - 39.2 °F 62% 30.11 in 10.0 mi North 13.8 mph 24.2 mph N/A   Clear
10:55 PM 51.8 °F - 37.4 °F 58% 30.11 in 10.0 mi North 16.1 mph - N/A   Clear
11:15 PM 51.8 °F - 39.2 °F 62% 30.10 in 10.0 mi North 16.1 mph - N/A   Clear
11:35 PM 51.8 °F - 37.4 °F 58% 30.10 in 10.0 mi North 15.0 mph 21.9 mph N/A   Clear
11:55 PM 51.8 °F - 39.2 °F 62% 30.10 in 10.0 mi North 13.8 mph - N/A   Clear